TimeCDT,TemperatureF,Dew PointF,Humidity,Sea Level PressureIn,VisibilityMPH,Wind Direction,Wind SpeedMPH,Gust SpeedMPH,PrecipitationIn,Events,Conditions,WindDirDegrees,DateUTC
12:53 AM,80.1,60.1,50,29.90,10.0,SSE,11.5,-,N/A,,Clear,160,2013-08-05 05:53:00
1:53 AM,78.1,60.1,54,29.89,10.0,SSE,9.2,-,N/A,,Clear,150,2013-08-05 06:53:00
2:53 AM,77.0,60.1,56,29.89,10.0,SSE,11.5,-,N/A,,Clear,160,2013-08-05 07:53:00
3:53 AM,77.0,60.1,56,29.88,10.0,South,10.4,-,N/A,,Clear,170,2013-08-05 08:53:00
4:53 AM,75.9,59.0,56,29.89,10.0,South,8.1,-,N/A,,Clear,190,2013-08-05 09:53:00
5:53 AM,77.0,57.9,52,29.89,10.0,SSW,10.4,-,N/A,,Clear,200,2013-08-05 10:53:00
6:53 AM,77.0,57.9,52,29.91,10.0,SW,10.4,-,N/A,,Scattered Clouds,220,2013-08-05 11:53:00
7:53 AM,77.0,59.0,54,29.92,10.0,SSW,12.7,18.4,N/A,,Scattered Clouds,200,2013-08-05 12:53:00
8:53 AM,79.0,62.1,56,29.93,10.0,SSW,19.6,-,N/A,,Scattered Clouds,210,2013-08-05 13:53:00
9:53 AM,82.0,62.1,51,29.93,10.0,SSW,15.0,-,N/A,,Partly Cloudy,200,2013-08-05 14:53:00
10:53 AM,84.9,63.0,48,29.93,10.0,SSW,13.8,-,N/A,,Partly Cloudy,200,2013-08-05 15:53:00
11:53 AM,89.1,62.1,40,29.91,10.0,South,10.4,-,N/A,,Partly Cloudy,190,2013-08-05 16:53:00
12:53 PM,91.0,57.9,33,29.89,10.0,Variable,6.9,-,N/A,,Partly Cloudy,0,2013-08-05 17:53:00
1:53 PM,93.0,55.9,29,29.86,10.0,South,15.0,20.7,N/A,,Scattered Clouds,180,2013-08-05 18:53:00
2:53 PM,95.0,55.9,27,29.83,10.0,South,10.4,21.9,N/A,,Scattered Clouds,170,2013-08-05 19:53:00
3:53 PM,95.0,54.0,25,29.81,10.0,South,17.3,24.2,N/A,,Partly Cloudy,180,2013-08-05 20:53:00
4:53 PM,97.0,53.1,23,29.79,10.0,South,13.8,20.7,N/A,,Partly Cloudy,180,2013-08-05 21:53:00
5:53 PM,96.1,53.1,23,29.77,10.0,SSE,16.1,21.9,N/A,,Partly Cloudy,160,2013-08-05 22:53:00
6:53 PM,95.0,54.0,25,29.76,10.0,SSE,13.8,20.7,N/A,,Partly Cloudy,160,2013-08-05 23:53:00
7:53 PM,93.0,54.0,27,29.75,10.0,SSE,12.7,-,N/A,,Partly Cloudy,160,2013-08-06 00:53:00
8:53 PM,89.1,55.0,31,29.75,10.0,SSE,10.4,-,N/A,,Partly Cloudy,150,2013-08-06 01:53:00
9:53 PM,84.9,55.0,36,29.77,10.0,SSE,8.1,-,N/A,,Clear,150,2013-08-06 02:53:00
10:53 PM,80.1,55.9,43,29.78,10.0,SE,8.1,-,N/A,,Clear,130,2013-08-06 03:53:00
11:53 PM,80.1,55.0,42,29.79,10.0,SSE,8.1,-,N/A,,Clear,150,2013-08-06 04:53:00